Location: Shell Point
(30.0571°N, 84.2896°W)
Time: 16:08:40
(UTC-04:00)

Meteor 2-19 Rocket - Visible Passes

Search period start: 20 September 2017 00:00
Search period end: 30 September 2017 00:00
Orbit: 935 x 959 km, 82.5° (Epoch: 19 September)

Date Brightness Start Highest point End Pass type
(mag) Time Alt. Az. Time Alt. Az. Time Alt. Az.
20 Sep 4.6 21:02:15 10° SSE 21:08:00 48° E 21:13:47 10° NNE visible
20 Sep 6.7 22:49:01 10° WSW 22:53:01 18° WNW 22:57:01 10° NNW visible
21 Sep 4.2 21:18:52 10° S 21:24:54 81° E 21:30:58 10° N visible
22 Sep 5.9 19:54:58 10° ESE 19:57:44 13° E 20:00:30 10° ENE visible
22 Sep 4.8 21:35:55 10° SSW 21:41:53 61° W 21:47:52 10° N visible
23 Sep 5.4 20:09:48 10° SE 20:14:27 24° E 20:19:05 10° NE visible
23 Sep 5.8 21:53:27 10° SW 21:58:57 36° W 22:04:28 10° NNW visible
24 Sep 4.8 20:25:41 10° SSE 20:31:14 40° E 20:36:48 10° NNE visible
24 Sep 6.6 22:11:36 10° SW 22:16:06 22° WNW 22:20:40 10° NNW visible
25 Sep 4.3 20:42:08 10° S 20:48:06 67° E 20:54:06 10° NNE visible
25 Sep 7.2 22:30:55 10° W 22:33:22 12° WNW 22:35:49 10° NW visible
26 Sep 4.6 20:59:02 10° SSW 21:05:03 74° W 21:11:07 10° N visible
27 Sep 5.5 21:16:23 10° SSW 21:22:05 43° W 21:27:50 10° N visible
28 Sep 7.7 06:33:15 10° NE 06:35:23 12° ENE 06:37:30 10° E visible
28 Sep 5.0 19:49:11 10° SSE 19:54:29 33° E 19:59:47 10° NNE visible
28 Sep 6.4 21:34:17 10° SW 21:39:13 26° WNW 21:44:11 10° NNW visible
29 Sep 7.3 06:48:12 10° NNE 06:52:40 21° ENE 06:57:07 10° ESE visible
29 Sep 4.5 20:05:27 10° SSE 20:11:19 56° E 20:17:12 10° NNE visible
29 Sep 7.2 21:53:02 10° WSW 21:56:26 15° WNW 21:59:52 10° NW visible
